Regional Weather Roundup
Issued by NWS Midland/Odessa, TX

Skip options and go directly to product.
Home | Oldest Version | Previous Version | Current Version | All | Graphics & Text | Save Text | Print | Product List | Glossary On

Skip product version selection by date and time.   
809
ASUS44 KMAF 290810
RWRMAF
MIDLAND AREA WEATHER ROUNDUP
NATIONAL WEATHER SERVICE MIDLAND TX
200 AM CST MON DEC 29 2014

...IN SOUTHWEST TEXAS AND SOUTHEAST NEW MEXICO...

CITY           SKY/WX    TMP DP  RH WIND       PRES   REMARKS
ALPINE         PTCLDY    42  30  61 W9        30.14S WCI  37
ANDREWS        FAIR      39  28  63 SW8       30.01F WCI  33
ARTESIA        CLOUDY    41  19  42 W6        30.01F WCI  37
BIG SPRING     MOCLDY    38  28  65 SE9       30.05F WCI  32
CARLSBAD       MOCLDY    34  29  82 CALM      29.99F
DRYDEN           N/A     34  29  82 CALM      30.06F
FORT STOCKTON  PTCLDY    44  31  60 SW15      30.03F WCI  37
GUAD PASS      NOT AVBL
HOBBS          MOCLDY    32  32 100 CALM      30.00F
MARFA          PTCLDY    23  19  86 N5        30.12F WCI  17
MIDLAND AIRPK  MOCLDY    43  28  54 W6        30.03S WCI  40
MIDLAND INTL   MOCLDY    41  27  57 SW6       30.02F WCI  37
ODESSA         MOCLDY    42  26  53 W9        30.02F WCI  37
PECOS          MOCLDY    34  29  83 S5        30.04F WCI  30
PRESIDIO       FAIR      39  30  70 N5        30.10F WCI  36
SEMINOLE       CLOUDY    37  28  71 W7        30.01F WCI  31
SNYDER         PTCLDY    35  26  70 S10       30.02S WCI  27
WINK           MOCLDY    39  27  62 CALM      30.02F
$$
...OTHER STATIONS IN TEXAS...

CITY           SKY/WX    TMP DP  RH WIND       PRES   REMARKS
ABILENE        MOCLDY    39  30  70 SW8       30.04F WCI  33
AMARILLO       PTCLDY    30  13  49 NW15      29.95S WCI  19
AUSTIN         CLEAR     27  27 100 CALM      30.14F
BROWNSVILLE    CLOUDY    48  46  93 NW7       30.16F
CORPUS CHRISTI PTCLDY    38  37  97 NW5       30.17F WCI  34
DALLAS FTW     PTCLDY    32  25  75 S9        30.12F WCI  24
DEL RIO        CLEAR     39  35  86 E7        30.11F WCI  34
EL PASO        MOCLDY    40  30  67 S14       30.08F WCI  32
HOUSTON INT    CLOUDY    41  40  96 N6        30.15S WCI  37
LUBBOCK        MOCLDY    37  27  67 W14       29.96F WCI  28
SAN ANGELO     CLEAR     34  28  79 CALM      30.06F
SAN ANTONIO    CLEAR     35  32  88 CALM      30.13F
WACO           CLEAR     27  24  89 CALM      30.14S
WICHITA FALLS  NOT AVBL
$$
...OTHER LOCATIONS IN NEW MEXICO...

CITY           SKY/WX    TMP DP  RH WIND       PRES   REMARKS
ALAMAGORDO     CLEAR     32  19  59 S6        30.07F WCI  26
ALBUQUERQUE    PTCLDY    23  12  62 E8        30.05F WCI  14
CANNON AFB     CLEAR     29  10  45 NW8       29.98F WCI  21
CLOVIS         PTCLDY    30   9  40 W13       29.97S WCI  20
HOLLOMAN AFB   CLEAR     34  22  62 SE7       30.06F WCI  27
ROSWELL        CLOUDY    31  20  63 NE5       29.99F WCI  26
RUIDOSO        CLEAR     27   9  46 CALM      30.02F
SANTA FE       CLEAR     14   6  70 N6        30.01F WCI   5
TRUTH OR CONSE CLEAR     25  14  63 NW6       30.04F WCI  18
TUCUMCARI      CLEAR     30  13  49 SW7       29.97S WCI  23
$$

USA.gov is the U.S. government's official web portal to all federal, state and local government web resources and services.